Tracking 19564 objects as of 18-Mar-2019
HD Live streaming from Space Station
objects crossing your sky now

BEESAT-4

Track BEESAT-4 now!
10-day predictions
BEESAT-4 is classified as:


NORAD ID: 41619
Int'l Code: 2016-040W
Perigee: 496.7 km
Apogee: 512.0 km
Inclination: 97.4 °
Period: 94.6 minutes
Semi major axis: 6875 km
RCS: Unknown
Launch date: June 22, 2016
Source: Germany (GER)
Launch site: SRIHARIKOTA (SRI)

Uplink (MHz):
Downlink (MHz): 435.950
Beacon (MHz): 435.950
Mode: 4800bps GMSK CW
Call sign: DP0BEH
Status: Active

aabbcc
Your satellite tracking list
Your tracking list is empty




NASA's NSSDC Master Catalog

Two Line Element Set (TLE):
1 41619U 16040W   19077.13741246  .00001478  00000-0  66023-4 0  9995
2 41619  97.3786 141.0474 0011141 357.6605   2.4577 15.22853251139770
Source of the keplerian elements: AFSPC